Location: Unspecified
(0.0000°N, 0.0000°E)
Time: 04:48:05
(UTC+02:00)

Cosmos 1340 - Visible Passes

Search period start: 26 April 2015 00:00
Search period end: 06 May 2015 00:00
Orbit: 516 x 519 km, 81.2° (Epoch: 25 April)

Date Brightness Start Highest point End Pass type
(mag) Time Alt. Az. Time Alt. Az. Time Alt. Az.
26 Apr 4.9 21:51:42 10° NW 21:54:52 24° W 21:56:12 20° SW visible
27 Apr 4.6 21:36:55 10° NNW 21:40:19 30° W 21:43:14 13° SSW visible
28 Apr 4.2 21:22:11 10° NNW 21:25:46 37° W 21:29:20 10° SSW visible
29 Apr 3.7 21:07:30 10° NNW 21:11:12 47° W 21:14:54 10° S visible
30 Apr 3.2 20:52:51 10° NNW 20:56:38 61° W 21:00:25 10° S visible
01 May 2.8 20:38:14 10° N 20:42:03 78° W 20:45:53 10° S visible
02 May 2.6 20:23:38 10° N 20:27:28 82° E 20:31:18 10° S visible
